Weather History for Manteo, NC

Change the Weather History Date:

Tuesday, January 15, 2013

  Actual Average Record
Temperature  
Mean Temperature 53 °F -  
Max Temperature 58 °F 46 °F 73 °F (2007)
Min Temperature 48 °F 34 °F 21 °F (1969)
Degree Days  
Heating Degree Days 12    
Growing Degree Days 3 (Base 50)    
Moisture  
Dew Point 50 °F    
Average Humidity 95    
Maximum Humidity 98    
Minimum Humidity 90    
Precipitation  
Precipitation 0.01 in - - ()
Sea Level Pressure  
Sea Level Pressure 30.18 in    
Wind  
Wind Speed 9 mph (NNE)    
Max Wind Speed 20 mph    
Max Gust Speed 25 mph    
Visibility 8 miles    
Events      
Averages and records for this station are not official NWS values.
T = Trace of Precipitation, MM = Missing Value Source: NWS Daily Summary

Daily Weather History Graph

Daily Weather History Graph

Search for Another Location

Airport:

Trip Planner

Search our weather history database for the weather conditions in past years. The results will help you decide how hot, cold, wet, or windy it might be!

Date:

Astronomy

Jan. 15, 2013 Rise Set
Actual Time 7:12 AM EST 5:12 PM EST
Civil Twilight 6:44 AM EST 5:40 PM EST
Nautical Twilight 6:13 AM EST 6:11 PM EST
Astronomical Twilight 5:42 AM EST 6:42 PM EST
Moon 9:26 AM EST (1/15) 9:48 PM EST (1/15)
Length of Visible Light 10h 55m
Length of Day
10h 00m
Waxing Crescent, 19% of the Moon is Illuminated
Jan 15
Waxing Crescent
Jan 18
First Quarter
Jan 26
Full
Feb 3
Last Quarter
Feb 10
New

Hourly Weather History & Observations

Time (EST) Temp. Dew Point Humidity Pressure Visibility Wind Dir Wind Speed Gust Speed Precip Events Conditions
12:15 AM 58.5 °F 57.6 °F 97% 30.15 in 10.0 mi SSW 6.9 mph - N/A   Clear
12:35 AM 58.1 °F 56.8 °F 96% 30.16 in 10.0 mi SSW 4.6 mph - N/A   Clear
12:55 AM 58.6 °F 57.6 °F 96% 30.17 in 10.0 mi North 11.5 mph 16.1 mph N/A   Scattered Clouds
1:15 AM 54.7 °F 53.1 °F 94% 30.18 in 10.0 mi North 10.4 mph - N/A   Overcast
1:35 AM 52.7 °F 51.1 °F 94% 30.19 in 10.0 mi North 12.7 mph - N/A   Overcast
1:55 AM 51.3 °F 49.6 °F 94% 30.19 in 10.0 mi North 15.0 mph 18.4 mph N/A   Overcast
2:15 AM 50.5 °F 49.1 °F 95% 30.19 in 10.0 mi North 16.1 mph 20.7 mph N/A   Overcast
2:35 AM 50.2 °F 49.1 °F 96% 30.19 in 10.0 mi NNE 17.3 mph 21.9 mph N/A   Overcast
2:55 AM 50.2 °F 48.9 °F 95% 30.19 in 10.0 mi North 13.8 mph - N/A   Overcast
3:15 AM 50.0 °F 48.6 °F 95% 30.19 in 10.0 mi NNE 17.3 mph - N/A   Overcast
3:35 AM 49.6 °F 48.2 °F 95% 30.19 in 7.0 mi NNE 16.1 mph 24.2 mph N/A   Overcast
3:55 AM 49.3 °F 48.2 °F 96% 30.19 in 10.0 mi NNE 12.7 mph - N/A   Overcast
4:15 AM 49.1 °F 47.7 °F 95% 30.19 in 10.0 mi NNE 15.0 mph 23.0 mph N/A   Overcast
4:35 AM 49.1 °F 47.5 °F 94% 30.19 in 10.0 mi NNE 17.3 mph 23.0 mph N/A   Overcast
4:55 AM 49.1 °F 47.5 °F 94% 30.19 in 10.0 mi NNE 18.4 mph 25.3 mph N/A   Overcast
5:15 AM 48.7 °F 47.5 °F 95% 30.18 in 10.0 mi NNE 13.8 mph 21.9 mph N/A   Overcast
5:55 AM 48.9 °F 47.5 °F 95% 30.18 in 10.0 mi NNE 17.3 mph 20.7 mph N/A   Overcast
6:15 AM 49.1 °F 47.7 °F 95% 30.18 in 10.0 mi NNE 13.8 mph 17.3 mph N/A   Overcast
6:35 AM 49.1 °F 47.8 °F 95% 30.19 in 10.0 mi NE 11.5 mph - N/A   Overcast
7:15 AM 49.5 °F 48.4 °F 96% 30.18 in 10.0 mi ENE 6.9 mph - N/A   Overcast
7:35 AM 50.0 °F 49.1 °F 97% 30.19 in 10.0 mi ENE 6.9 mph - N/A   Overcast
7:55 AM 50.2 °F 49.3 °F 97% 30.19 in 7.0 mi ENE 6.9 mph - N/A   Overcast
8:15 AM 50.2 °F 49.3 °F 97% 30.20 in 4.0 mi NNE 5.8 mph - N/A   Overcast
8:35 AM 50.5 °F 50.0 °F 98% 30.21 in 3.0 mi NNE 8.1 mph - N/A   Overcast
8:55 AM 50.9 °F 50.2 °F 97% 30.20 in 3.0 mi NNE 6.9 mph - N/A   Overcast
9:15 AM 51.1 °F 50.4 °F 97% 30.20 in 3.0 mi NNE 4.6 mph - N/A   Overcast
9:35 AM 52.0 °F 50.9 °F 96% 30.20 in 2.5 mi NNE 3.5 mph - N/A   Overcast
9:55 AM 52.7 °F 50.9 °F 94% 30.20 in 10.0 mi NNE 4.6 mph - N/A   Overcast
10:15 AM 52.7 °F 50.9 °F 94% 30.21 in 10.0 mi Calm Calm - N/A   Overcast
10:35 AM 53.6 °F 51.3 °F 92% 30.20 in 10.0 mi Calm Calm - N/A   Overcast
10:55 AM 54.1 °F 51.4 °F 91% 30.20 in 10.0 mi Calm Calm - N/A   Overcast
11:15 AM 54.3 °F 52.0 °F 92% 30.20 in 10.0 mi North 3.5 mph - N/A   Overcast
11:35 AM 53.8 °F 51.4 °F 92% 30.19 in 7.0 mi North 3.5 mph - N/A   Overcast
11:55 AM 53.8 °F 50.9 °F 90% 30.19 in 10.0 mi NNW 5.8 mph - N/A   Overcast
12:15 PM 52.0 °F 50.4 °F 94% 30.19 in 5.0 mi NNW 6.9 mph - N/A   Overcast
12:35 PM 53.1 °F 51.6 °F 95% 30.18 in 5.0 mi North 11.5 mph 16.1 mph N/A   Overcast
1:15 PM 50.4 °F 48.6 °F 94% 30.19 in 7.0 mi North 18.4 mph 25.3 mph N/A   Overcast
1:35 PM 49.6 °F 47.8 °F 94% 30.19 in 10.0 mi North 16.1 mph - N/A   Overcast
1:55 PM 49.6 °F 47.8 °F 94% 30.19 in 10.0 mi North 18.4 mph 23.0 mph N/A   Overcast
2:15 PM 49.6 °F 47.7 °F 93% 30.18 in 10.0 mi NNE 17.3 mph 24.2 mph N/A   Overcast
2:35 PM 49.6 °F 47.7 °F 93% 30.19 in 10.0 mi NNE 19.6 mph 23.0 mph N/A   Overcast
2:55 PM 49.6 °F 47.8 °F 94% 30.18 in 10.0 mi NNE 16.1 mph - N/A   Overcast
3:15 PM 49.6 °F 48.2 °F 95% 30.18 in 7.0 mi NNE 13.8 mph - N/A   Overcast
3:35 PM 50.0 °F 48.4 °F 94% 30.19 in 10.0 mi NNE 15.0 mph - N/A   Overcast
3:55 PM 50.2 °F 48.6 °F 94% 30.19 in 10.0 mi NNE 11.5 mph 18.4 mph N/A   Overcast
4:15 PM 50.4 °F 49.1 °F 95% 30.19 in 10.0 mi NE 10.4 mph - N/A   Overcast
4:35 PM 50.9 °F 49.3 °F 94% 30.19 in 7.0 mi NE 8.1 mph - N/A   Overcast
4:55 PM 50.9 °F 49.6 °F 95% 30.17 in 5.0 mi NE 10.4 mph - N/A   Overcast
5:15 PM 51.3 °F 50.2 °F 96% 30.17 in 7.0 mi NE 5.8 mph - N/A   Overcast
5:35 PM 51.8 °F 50.5 °F 95% 30.18 in 10.0 mi NE 5.8 mph - N/A   Overcast
5:55 PM 52.0 °F 50.9 °F 96% 30.18 in 10.0 mi NE 5.8 mph - N/A   Overcast
6:15 PM 52.2 °F 50.9 °F 95% 30.18 in 10.0 mi NE 4.6 mph - N/A   Overcast
6:35 PM 52.7 °F 51.1 °F 94% 30.18 in 10.0 mi NE 3.5 mph - N/A   Overcast
6:55 PM 52.9 °F 51.4 °F 95% 30.18 in 10.0 mi North 3.5 mph - N/A   Overcast
7:15 PM 52.7 °F 51.3 °F 95% 30.18 in 10.0 mi Calm Calm - N/A   Overcast
7:35 PM 52.5 °F 51.1 °F 95% 30.18 in 7.0 mi Calm Calm - N/A   Overcast
7:55 PM 52.2 °F 51.3 °F 97% 30.17 in 3.0 mi Calm Calm - N/A   Overcast
8:15 PM 51.8 °F 50.9 °F 97% 30.16 in 2.0 mi Calm Calm - N/A   Overcast
8:35 PM 51.8 °F 50.9 °F 97% 30.15 in 3.0 mi NNE 3.5 mph - N/A   Overcast
8:55 PM 51.4 °F 50.9 °F 98% 30.15 in 2.0 mi NW 3.5 mph - N/A   Overcast
9:15 PM 51.8 °F 50.9 °F 97% 30.15 in 2.0 mi North 3.5 mph - N/A   Overcast
9:35 PM 51.8 °F 51.1 °F 97% 30.14 in 2.5 mi Calm Calm - N/A   Overcast
9:55 PM 51.8 °F 51.1 °F 97% 30.14 in 3.0 mi Calm Calm - N/A   Overcast
10:15 PM 51.8 °F 51.3 °F 98% 30.13 in 2.5 mi Calm Calm - N/A   Overcast
10:35 PM 51.8 °F 51.3 °F 98% 30.13 in 7.0 mi Calm Calm - N/A   Overcast
10:55 PM 51.8 °F 51.1 °F 97% 30.11 in 5.0 mi ENE 3.5 mph - N/A   Overcast
11:15 PM 51.8 °F 51.3 °F 98% 30.10 in 7.0 mi ENE 4.6 mph - N/A   Overcast
11:35 PM 52.0 °F 51.3 °F 97% 30.09 in 10.0 mi Calm Calm - N/A   Overcast
11:55 PM 52.2 °F 51.4 °F 97% 30.09 in 7.0 mi Calm Calm - 0.01 in   Overcast